Tracking 33057 objects as of 23-Jan-2026
HD Live streaming from Space Station
objects crossing your sky now

ONEWEB-0673

Track ONEWEB-0673 now!
10-day predictions
ONEWEB-0673 is classified as:


NORAD ID: 55832
Int'l Code: 2023-029AN
Perigee: 1,191.6 km
Apogee: 1,194.2 km
Inclination: 87.9 °
Period: 109.1 minutes
Semi major axis: 7563 km
RCS: Unknown
Launch date: March 9, 2023
Source: United Kingdom (UK)
Launch site: AIR FORCE EASTERN TEST RANGE (AFETR)
Your satellite tracking list
Your tracking list is empty




NASA's NSSDC Master Catalog

Two Line Element Set (TLE):
1 55832U 23029AN  26022.85144403  .00000033  00000-0  49720-4 0  9992
2 55832  87.9244 333.8863 0001780  74.3541 285.7788 13.19726882139738
Source of the keplerian elements: AFSPC